Abilene, TX

7:33 AM CST on February 24, 2017 (GMT -0600)
Abilene Regional

Weather History for KABI - June, 2014

Change the Weather History Date:

Sunday, June 8, 2014

  Actual Average Record
Temperature  
Mean Temperature 74 °F 78 °F  
Max Temperature 82 °F 89 °F 105 °F (1928)
Min Temperature 65 °F 67 °F 53 °F (1916)
Degree Days  
Heating Degree Days 0 0  
Month to date heating degree days 0 0  
Since 1 June heating degree days 0 0  
Since 1 July heating degree days 2821 2558  
Cooling Degree Days 9 13  
Month to date cooling degree days 138 101  
Year to date cooling degree days 652 498  
Since 1 June cooling degree days 138 101  
Growing Degree Days 23 (Base 50)    
Moisture  
Dew Point 64 °F    
Average Humidity 74    
Maximum Humidity 93    
Minimum Humidity 54    
Precipitation  
Precipitation 0.96 in 0.14 in 2.05 in (1955)
Month to date precipitation 0.96 1.13  
Year to date precipitation 4.95 10.07  
Sea Level Pressure  
Sea Level Pressure 29.88 in    
Wind  
Wind Speed 10 mph (North)    
Max Wind Speed 24 mph    
Max Gust Speed 47 mph    
Visibility 9 miles    
Events Rain , Thunderstorm    
T = Trace of Precipitation, MM = Missing Value Source: NWS Daily Summary

Daily Weather History Graph

Daily Weather History Graph

Search for Another Location

Airport or City:

Trip Planner

Search our weather history database for the weather conditions in past years. The results will help you decide how hot, cold, wet, or windy it might be!

Date:

Astronomy

Jun. 08, 2014 Rise Set
Actual Time 6:31 AM CDT 8:44 PM CDT
Civil Twilight 6:02 AM CDT 9:12 PM CDT
Nautical Twilight 5:28 AM CDT 9:47 PM CDT
Astronomical Twilight 4:51 AM CDT 10:24 PM CDT
Moon 4:18 PM CDT (6/8) 3:09 AM CDT (6/8)
Length of Visible Light 15h 09m
Length of Day
14h 13m
Waxing Gibbous, 77% of the Moon is Illuminated
Jun 8
Waxing Gibbous
Jun 12
Full
Jun 19
Last Quarter
Jun 27
New
Jul 5
First Quarter

Hourly Weather History & Observations

Time (CDT) Temp. Heat Index Dew Point Humidity Pressure Visibility Wind Dir Wind Speed Gust Speed Precip Events Conditions
12:52 AM 82.0 °F 83.4 °F 64.0 °F 54% 29.77 in 10.0 mi SSE 20.7 mph 27.6 mph N/A   Clear
1:52 AM 80.1 °F 81.9 °F 64.9 °F 60% 29.75 in 10.0 mi SSE 18.4 mph 28.8 mph N/A   Clear
2:52 AM 79.0 °F - 66.0 °F 64% 29.78 in 10.0 mi SSE 13.8 mph 26.5 mph N/A   Clear
3:52 AM 72.0 °F - 61.0 °F 68% 29.87 in 10.0 mi NNW 26.5 mph 47.2 mph N/A   Scattered Clouds
4:05 AM 68.0 °F - 62.1 °F 81% 29.98 in 9.0 mi North 23.0 mph 31.1 mph N/A Rain Rain
4:10 AM 66.0 °F - 62.1 °F 87% 29.96 in 6.0 mi North 19.6 mph 31.1 mph 0.03 in Rain , Thunderstorm Thunderstorms and Rain
4:19 AM 64.9 °F - 62.1 °F 90% 29.96 in 5.0 mi NNE 17.3 mph 31.1 mph 0.05 in Rain , Thunderstorm Thunderstorms and Rain
4:35 AM 64.9 °F - 62.1 °F 90% 29.99 in 5.0 mi North 19.6 mph 23.0 mph 0.18 in Rain , Thunderstorm Thunderstorms and Rain
4:44 AM 64.9 °F - 63.0 °F 93% 29.99 in 5.0 mi North 16.1 mph - 0.19 in Rain , Thunderstorm Thunderstorms and Rain
4:52 AM 64.9 °F - 63.0 °F 93% 29.91 in 3.0 mi North 18.4 mph - 0.22 in Rain , Thunderstorm Thunderstorms and Rain
5:00 AM 64.9 °F - 63.0 °F 93% 30.00 in 2.0 mi North 15.0 mph - 0.14 in Rain , Thunderstorm Thunderstorms and Rain
5:22 AM 64.9 °F - 63.0 °F 93% 30.01 in 4.0 mi North 5.8 mph - 0.38 in Rain , Thunderstorm Thunderstorms and Rain
5:45 AM 64.9 °F - 63.0 °F 93% 29.99 in 7.0 mi NNE 5.8 mph - 0.51 in Rain , Thunderstorm Light Thunderstorms and Rain
5:52 AM 64.9 °F - 63.0 °F 93% 29.93 in 7.0 mi NNW 4.6 mph - 0.52 in Rain , Thunderstorm Light Thunderstorms and Rain
6:52 AM 66.0 °F - 64.0 °F 93% 29.92 in 10.0 mi SSE 6.9 mph - 0.04 in Rain , Thunderstorm Light Thunderstorms and Rain
6:59 AM 66.0 °F - 64.0 °F 93% 30.00 in 10.0 mi South 4.6 mph - 0.00 in Rain , Thunderstorm Light Thunderstorms and Rain
7:52 AM 66.0 °F - 64.0 °F 93% 29.91 in 10.0 mi ESE 9.2 mph - 0.05 in Rain , Thunderstorm Light Thunderstorms and Rain
8:21 AM 66.9 °F - - N/A% 29.95 in 10.0 mi East 9.2 mph - 0.02 in Rain , Thunderstorm Light Thunderstorms and Rain
8:42 AM 68.0 °F - - N/A% 29.91 in 10.0 mi ESE 17.3 mph - 0.02 in   Partly Cloudy
8:52 AM 68.0 °F - 63.0 °F 84% 29.81 in 10.0 mi SE 18.4 mph - 0.02 in   Clear
9:52 AM 66.9 °F - 64.0 °F 90% 29.85 in 10.0 mi SSE 18.4 mph - 0.02 in   Partly Cloudy
10:26 AM 68.0 °F - 64.0 °F 87% 29.97 in 10.0 mi NW 6.9 mph - N/A   Mostly Cloudy
10:50 AM 68.0 °F - 64.4 °F 88% 29.98 in 10.0 mi WNW 4.6 mph - N/A   Scattered Clouds
10:52 AM 68.0 °F - 64.0 °F 87% 29.91 in 10.0 mi Calm Calm - N/A   Partly Cloudy
11:52 AM 75.0 °F - 64.0 °F 69% 29.88 in 10.0 mi SSW 9.2 mph - N/A   Partly Cloudy
12:52 PM 79.0 °F - 63.0 °F 58% 29.88 in 10.0 mi WSW 8.1 mph 16.1 mph N/A   Clear
1:52 PM 80.1 °F 81.5 °F 63.0 °F 56% 29.87 in 10.0 mi South 5.8 mph - N/A   Clear
3:52 PM 75.0 °F - 64.9 °F 71% 29.84 in 10.0 mi WSW 9.2 mph - N/A   Clear
4:52 PM 75.0 °F - 66.0 °F 73% 29.83 in 10.0 mi NE 6.9 mph - N/A   Overcast
5:24 PM 73.4 °F - 68.0 °F 83% 29.86 in 10.0 mi SW 12.7 mph - N/A Rain Light Rain
5:52 PM 73.9 °F - 69.1 °F 85% 29.78 in 10.0 mi South 8.1 mph - 0.02 in Rain Light Rain
6:52 PM 75.0 °F - 70.0 °F 84% 29.78 in 10.0 mi North 12.7 mph - 0.06 in   Partly Cloudy
7:52 PM 75.0 °F - 66.0 °F 73% 29.77 in 10.0 mi North 9.2 mph - N/A   Scattered Clouds
8:52 PM 73.9 °F - 64.9 °F 73% 29.78 in 10.0 mi North 3.5 mph - N/A   Clear
9:52 PM 73.0 °F - 66.0 °F 79% 29.79 in 10.0 mi Calm Calm - N/A   Clear
10:52 PM 71.1 °F - 64.0 °F 78% 29.83 in 10.0 mi South 16.1 mph 23.0 mph N/A   Mostly Cloudy
11:29 PM 70.0 °F - 66.0 °F 87% 29.88 in 10.0 mi West 5.8 mph - 0.01 in Thunderstorm Thunderstorm
11:52 PM 70.0 °F - 64.0 °F 81% 29.81 in 10.0 mi WNW 6.9 mph - 0.01 in Rain , Thunderstorm Light Thunderstorms and Rain